Time,TemperatureF,DewpointF,PressureIn,WindDirection,WindDirectionDegrees,WindSpeedMPH,WindSpeedGustMPH,Humidity,HourlyPrecipIn,Conditions,Clouds,dailyrainin,SoftwareType,DateUTC
2013-07-15 00:01:00,76.0,72.0,-100.00,West,278,4.0,10.0,87,-99.99,,,-99.99,,2013-07-15 04:01:00,
2013-07-15 00:11:00,76.0,72.0,-100.00,NNE,20,5.0,11.0,87,-99.99,,,-99.99,,2013-07-15 04:11:00,
2013-07-15 00:22:00,76.0,71.0,-100.00,WSW,253,6.0,13.0,85,-99.99,,,-99.99,,2013-07-15 04:22:00,
2013-07-15 00:32:00,76.0,71.0,-100.00,NNE,14,5.0,12.0,85,-99.99,,,-99.99,,2013-07-15 04:32:00,
2013-07-15 00:42:00,76.0,71.0,-100.00,SSW,204,6.0,13.0,85,-99.99,,,-99.99,,2013-07-15 04:42:00,
2013-07-15 00:53:00,76.0,71.0,-100.00,NE,48,8.0,15.0,84,-99.99,,,-99.99,,2013-07-15 04:53:00,
2013-07-15 01:02:00,76.0,71.0,-100.00,East,84,13.0,19.0,85,-99.99,,,-99.99,,2013-07-15 05:02:00,
2013-07-15 01:11:00,76.0,72.0,-100.00,East,86,13.0,18.0,86,-99.99,,,-99.99,,2013-07-15 05:11:00,
2013-07-15 01:22:00,76.0,70.0,-100.00,East,91,11.0,15.0,83,-99.99,,,-99.99,,2013-07-15 05:22:00,
2013-07-15 01:32:00,76.0,71.0,-100.00,East,83,13.0,16.0,84,-99.99,,,-99.99,,2013-07-15 05:32:00,
2013-07-15 01:43:00,76.0,71.0,-100.00,East,84,10.0,14.0,84,-99.99,,,-99.99,,2013-07-15 05:43:00,
2013-07-15 01:53:00,77.0,72.0,-100.00,East,86,5.0,10.0,84,-99.99,,,-99.99,,2013-07-15 05:53:00,
2013-07-15 02:02:00,77.0,72.0,-100.00,East,86,8.0,12.0,84,-99.99,,,-99.99,,2013-07-15 06:02:00,
2013-07-15 02:12:00,77.0,72.0,-100.00,ENE,76,10.0,13.0,84,-99.99,,,-99.99,,2013-07-15 06:12:00,
2013-07-15 02:22:00,76.0,71.0,-100.00,East,84,15.0,29.0,84,-99.99,,,-99.99,,2013-07-15 06:22:00,
2013-07-15 02:32:00,75.0,69.0,-100.00,East,79,21.0,26.0,81,-99.99,,,-99.99,,2013-07-15 06:32:00,
2013-07-15 02:42:00,76.0,70.0,-100.00,East,79,16.0,22.0,82,-99.99,,,-99.99,,2013-07-15 06:42:00,
2013-07-15 02:53:00,76.0,69.0,-100.00,SE,127,14.0,21.0,79,-99.99,,,-99.99,,2013-07-15 06:53:00,
2013-07-15 03:01:00,77.0,68.0,-100.00,SE,135,11.0,19.0,73,-99.99,,,-99.99,,2013-07-15 07:01:00,
2013-07-15 03:11:00,77.0,67.0,-100.00,East,91,13.0,22.0,72,-99.99,,,-99.99,,2013-07-15 07:11:00,
2013-07-15 03:21:00,77.0,68.0,-100.00,East,87,9.0,15.0,73,-99.99,,,-99.99,,2013-07-15 07:21:00,
2013-07-15 03:33:00,77.0,69.0,-100.00,SE,124,9.0,15.0,76,-99.99,,,-99.99,,2013-07-15 07:33:00,
2013-07-15 03:44:00,76.0,66.0,-100.00,East,86,12.0,16.0,72,-99.99,,,-99.99,,2013-07-15 07:44:00,
2013-07-15 03:53:00,77.0,68.0,-100.00,East,89,6.0,10.0,74,-99.99,,,-99.99,,2013-07-15 07:53:00,
2013-07-15 04:01:00,76.0,68.0,-100.00,East,90,8.0,10.0,76,-99.99,,,-99.99,,2013-07-15 08:01:00,
2013-07-15 04:11:00,77.0,69.0,-100.00,ENE,69,6.0,8.0,76,-99.99,,,-99.99,,2013-07-15 08:11:00,
2013-07-15 04:22:00,77.0,68.0,-100.00,NE,53,4.0,9.0,75,-99.99,,,-99.99,,2013-07-15 08:22:00,
2013-07-15 04:32:00,77.0,67.0,-100.00,ENE,69,7.0,12.0,72,-99.99,,,-99.99,,2013-07-15 08:32:00,
2013-07-15 04:43:00,77.0,68.0,-100.00,East,89,8.0,11.0,73,-99.99,,,-99.99,,2013-07-15 08:43:00,
2013-07-15 04:53:00,78.0,69.0,-100.00,East,90,9.0,11.0,75,-99.99,,,-99.99,,2013-07-15 08:53:00,
2013-07-15 05:02:00,78.0,69.0,-100.00,East,89,9.0,12.0,75,-99.99,,,-99.99,,2013-07-15 09:02:00,
2013-07-15 05:11:00,78.0,71.0,-100.00,ENE,75,12.0,17.0,78,-99.99,,,-99.99,,2013-07-15 09:11:00,
2013-07-15 05:22:00,77.0,70.0,-100.00,ESE,107,10.0,18.0,78,-99.99,,,-99.99,,2013-07-15 09:22:00,
2013-07-15 05:32:00,77.0,71.0,-100.00,East,84,13.0,17.0,82,-99.99,,,-99.99,,2013-07-15 09:32:00,
2013-07-15 05:43:00,78.0,72.0,-100.00,NE,45,6.0,13.0,83,-99.99,,,-99.99,,2013-07-15 09:43:00,
2013-07-15 05:52:00,78.0,72.0,-100.00,NNE,14,6.0,14.0,82,-99.99,,,-99.99,,2013-07-15 09:52:00,
2013-07-15 06:02:00,77.0,69.0,-100.00,East,90,11.0,17.0,77,-99.99,,,-99.99,,2013-07-15 10:02:00,
2013-07-15 06:11:00,77.0,69.0,-100.00,NE,52,5.0,12.0,76,-99.99,,,-99.99,,2013-07-15 10:11:00,
2013-07-15 06:22:00,78.0,69.0,-100.00,NE,51,7.0,14.0,73,-99.99,,,-99.99,,2013-07-15 10:22:00,
2013-07-15 06:32:00,78.0,69.0,-100.00,South,191,3.0,8.0,73,-99.99,,,-99.99,,2013-07-15 10:32:00,
2013-07-15 06:43:00,78.0,69.0,-100.00,NNE,20,3.0,11.0,74,-99.99,,,-99.99,,2013-07-15 10:43:00,
2013-07-15 06:53:00,78.0,69.0,-100.00,NE,42,3.0,7.0,75,-99.99,,,-99.99,,2013-07-15 10:53:00,
2013-07-15 07:02:00,79.0,71.0,-100.00,ENE,76,4.0,8.0,76,-99.99,,,-99.99,,2013-07-15 11:02:00,
2013-07-15 07:11:00,79.0,71.0,-100.00,West,259,2.0,7.0,77,-99.99,,,-99.99,,2013-07-15 11:11:00,
2013-07-15 07:22:00,79.0,72.0,-100.00,ENE,72,2.0,5.0,78,-99.99,,,-99.99,,2013-07-15 11:22:00,
2013-07-15 07:32:00,79.0,72.0,-100.00,NE,34,2.0,7.0,80,-99.99,,,-99.99,,2013-07-15 11:32:00,
2013-07-15 07:42:00,79.0,73.0,-100.00,NE,48,2.0,5.0,81,-99.99,,,-99.99,,2013-07-15 11:42:00,
2013-07-15 07:52:00,79.0,73.0,-100.00,ESE,121,2.0,6.0,81,-99.99,,,-99.99,,2013-07-15 11:52:00,
2013-07-15 08:01:00,79.0,73.0,-100.00,North,349,2.0,3.0,82,-99.99,,,-99.99,,2013-07-15 12:01:00,
2013-07-15 08:11:00,79.0,73.0,-100.00,NNE,31,2.0,5.0,82,-99.99,,,-99.99,,2013-07-15 12:11:00,
2013-07-15 08:22:00,80.0,74.0,-100.00,SW,226,2.0,5.0,81,-99.99,,,-99.99,,2013-07-15 12:22:00,
2013-07-15 08:32:00,80.0,73.0,-100.00,SE,134,2.0,5.0,80,-99.99,,,-99.99,,2013-07-15 12:32:00,
2013-07-15 08:42:00,80.0,73.0,-100.00,East,97,2.0,5.0,79,-99.99,,,-99.99,,2013-07-15 12:42:00,
2013-07-15 08:52:00,80.0,73.0,-100.00,NE,46,2.0,6.0,80,-99.99,,,-99.99,,2013-07-15 12:52:00,
2013-07-15 09:01:00,81.0,74.0,-100.00,NNE,21,3.0,9.0,80,-99.99,,,-99.99,,2013-07-15 13:01:00,
2013-07-15 09:11:00,82.0,73.0,-100.00,NNE,27,7.0,13.0,75,-99.99,,,-99.99,,2013-07-15 13:11:00,
2013-07-15 09:22:00,82.0,72.0,-100.00,ENE,58,6.0,10.0,72,-99.99,,,-99.99,,2013-07-15 13:22:00,
2013-07-15 09:33:00,82.0,72.0,-100.00,ENE,59,5.0,16.0,72,-99.99,,,-99.99,,2013-07-15 13:33:00,
2013-07-15 09:43:00,82.0,72.0,-100.00,East,83,5.0,10.0,71,-99.99,,,-99.99,,2013-07-15 13:43:00,
2013-07-15 10:42:00,81.0,71.0,-100.00,East,80,8.0,11.0,71,-99.99,,,-99.99,,2013-07-15 14:42:00,
2013-07-15 10:56:00,81.0,71.0,-100.00,NE,45,7.0,11.0,72,-99.99,,,-99.99,,2013-07-15 14:56:00,
2013-07-15 11:39:00,82.0,72.0,-100.00,ENE,76,7.0,10.0,72,-99.99,,,-99.99,,2013-07-15 15:39:00,
2013-07-15 11:53:00,82.0,72.0,-100.00,ENE,73,7.0,10.0,71,-99.99,,,-99.99,,2013-07-15 15:53:00,
2013-07-15 12:33:00,81.0,70.0,-100.00,East,84,8.0,11.0,70,-99.99,,,-99.99,,2013-07-15 16:33:00,
2013-07-15 13:06:00,82.0,72.0,-100.00,East,90,7.0,10.0,71,-99.99,,,-99.99,,2013-07-15 17:06:00,
2013-07-15 13:36:00,82.0,71.0,-100.00,East,90,6.0,10.0,69,-99.99,,,-99.99,,2013-07-15 17:36:00,
2013-07-15 13:48:00,82.0,72.0,-100.00,ENE,66,6.0,9.0,72,-99.99,,,-99.99,,2013-07-15 17:48:00,
2013-07-15 13:55:00,82.0,71.0,-100.00,East,82,5.0,11.0,69,-99.99,,,-99.99,,2013-07-15 17:55:00,
2013-07-15 15:47:00,83.0,73.0,-100.00,SE,124,6.0,11.0,71,-99.99,,,-99.99,,2013-07-15 19:47:00,
2013-07-15 15:56:00,82.0,71.0,-100.00,ESE,122,8.0,12.0,69,-99.99,,,-99.99,,2013-07-15 19:56:00,
2013-07-15 16:37:00,81.0,70.0,-100.00,NE,38,11.0,18.0,70,-99.99,,,-99.99,,2013-07-15 20:37:00,
2013-07-15 16:43:00,81.0,70.0,-100.00,East,94,15.0,20.0,69,-99.99,,,-99.99,,2013-07-15 20:43:00,
2013-07-15 16:54:00,81.0,69.0,-100.00,East,87,16.0,19.0,68,-99.99,,,-99.99,,2013-07-15 20:54:00,
2013-07-15 17:23:00,81.0,69.0,-100.00,East,83,15.0,19.0,66,-99.99,,,-99.99,,2013-07-15 21:23:00,
2013-07-15 17:56:00,81.0,71.0,-100.00,ENE,66,8.0,14.0,71,-99.99,,,-99.99,,2013-07-15 21:56:00,
2013-07-15 18:03:00,81.0,72.0,-100.00,East,79,8.0,16.0,75,-99.99,,,-99.99,,2013-07-15 22:03:00,
2013-07-15 18:17:00,81.0,72.0,-100.00,SSE,158,7.0,11.0,75,-99.99,,,-99.99,,2013-07-15 22:17:00,
2013-07-15 18:54:00,80.0,69.0,-100.00,East,90,14.0,16.0,70,-99.99,,,-99.99,,2013-07-15 22:54:00,
2013-07-15 19:06:00,80.0,71.0,-100.00,East,80,16.0,19.0,73,-99.99,,,-99.99,,2013-07-15 23:06:00,
2013-07-15 19:13:00,80.0,70.0,-100.00,East,87,18.0,22.0,72,-99.99,,,-99.99,,2013-07-15 23:13:00,
2013-07-15 19:38:00,81.0,72.0,-100.00,East,83,14.0,21.0,73,-99.99,,,-99.99,,2013-07-15 23:38:00,
2013-07-15 19:46:00,80.0,70.0,-100.00,ENE,77,15.0,21.0,71,-99.99,,,-99.99,,2013-07-15 23:46:00,
2013-07-15 19:53:00,80.0,69.0,-100.00,East,86,18.0,28.0,70,-99.99,,,-99.99,,2013-07-15 23:53:00,
2013-07-15 20:03:00,79.0,70.0,-100.00,East,83,21.0,26.0,73,-99.99,,,-99.99,,2013-07-16 00:03:00,
2013-07-15 20:15:00,79.0,71.0,-100.00,East,93,12.0,19.0,76,-99.99,,,-99.99,,2013-07-16 00:15:00,
2013-07-15 20:26:00,80.0,71.0,-100.00,SE,124,12.0,20.0,73,-99.99,,,-99.99,,2013-07-16 00:26:00,
2013-07-15 20:33:00,80.0,72.0,-100.00,East,89,14.0,21.0,76,-99.99,,,-99.99,,2013-07-16 00:33:00,
2013-07-15 20:53:00,80.0,70.0,-100.00,East,87,17.0,24.0,72,-99.99,,,-99.99,,2013-07-16 00:53:00,
2013-07-15 21:15:00,80.0,68.0,-100.00,ENE,65,12.0,20.0,68,-99.99,,,-99.99,,2013-07-16 01:15:00,
2013-07-15 21:27:00,81.0,69.0,-100.00,SSE,162,11.0,18.0,66,-99.99,,,-99.99,,2013-07-16 01:27:00,
2013-07-15 21:48:00,81.0,71.0,-100.00,ESE,107,9.0,16.0,72,-99.99,,,-99.99,,2013-07-16 01:48:00,
2013-07-15 21:57:00,80.0,70.0,-100.00,SE,142,14.0,21.0,72,-99.99,,,-99.99,,2013-07-16 01:57:00,
2013-07-15 22:35:00,80.0,72.0,-100.00,East,87,18.0,30.0,78,-99.99,,,-99.99,,2013-07-16 02:35:00,
2013-07-15 23:47:00,80.0,72.0,-100.00,East,101,13.0,23.0,76,-99.99,,,-99.99,,2013-07-16 03:47:00,